THOR ABLESTAR DEB, 355

Orbit data source: Space-Track

THOR ABLESTAR DEB, 355 is space debris in LEO originally from a launch on Thu, 29 Jun 1961 UTC launched from the Air Force Eastern Test Range (AFETR). Debris objects in space refer to the collection of defunct objects orbiting the Earth. Examples of debris include non-operational satellites, rocket bodies, and fragments generated from explosions, collisions, or faulty payload assembly.

Loading next visibility...
Identifier
355, 1961-015DV
Orbit
LEO
Country
Flag of USUS
Related business
Manufacturer
Unknown
Mission
Spacecraft
Bus & Motor
Unknown
Mass
Unknown
Launch date (UTC)
1961-06-29 (64 years ago)
Launch vehicle
Unknown
Launch site
Air Force Eastern Test Range (AFETR)
Object type
Payload
Rocket body
Debris
Shape & HBR
Unknown
Radar Cross Section
Medium (>0.1 m² and <1 m²)

Expand to show TLE details & history
Last TLE update: 21 hours ago

TLE from 21 hours ago
0 THOR ABLESTAR DEB
1 00355U 61015DV  25260.03311294  .00000526  00000-0  10172-2 0  9990
2 00355  67.2245 243.8245 0235459  38.7417  20.2363 13.33780855112594
Epoch: 2025-09-17T00:47Z
TLE epoch observation values (Epoch: 2025-09-17T00:47:40.958Z)
Latitude
53.05568°
Longitude
-90.57404°
Altitude
974.947 km
Speed
7.45 km/s
True Right ascension
18h 30m 14s
True Declination
52° 53' 43"
Sunlit
Object was in daylight at epoch
Visualization orbit readout
Latitude
Unknown
Longitude
Unknown
Altitude
Unknown
Speed
Unknown
Apparent Right ascension
Unknown
Apparent Declination
Unknown
Sunlit
N/A
Visualization observer readout
Local Sidereal Time
14:37:58
Azimuth
Unknown
Elevation
Unknown
Doppler factor
Unknown
Orbital elements
Apogee altitude
1,307.733 km
Perigee altitude
954.118 km
Semi-major axis
7,509.063 km
Eccentricity
0.02355
Inclination
67.2245°
RAAN
243.8245°
Arg. of periapsis
38.7417°
True anomaly
21.196°
Mean anomaly
20.2363°
Eccentric anomaly
20.71346°
Mean motion
3.33553 °/min
Orbital period
107.93 mins
BSTAR
0.0010172
Loading maneuver chart data...
Computing Atmospheric mass density...

Documentation

Showing up to 5 results
|